Location: Unspecified
(43.4354°N, 0.0000°E)
Time: 22:54:24
(UTC+00:00)

Vanguard 1 Rocket - Pass Details

Date: 18 June 2019
Orbit: 650 x 4226 km, 34.3° (Epoch: 20 October)

Event Time Altitude Azimuth Distance (km) Brightness Sun altitude
Rises 22:24:19 0° 268° (W) 4,482 11.2 -19.5°
Reaches altitude 10° 22:28:25 10° 256° (WSW) 2,994 10.1 -19.8°
Enters shadow 22:33:26 24° 208° (SSW) 1,658 8.4 -20.2°
